EHI
18 19 19 19 19 19 23 24 20 15 12 10 6 2 0 0 1 2 3 3 3 2 1 0 0 0 0 0 0 0 0 0 0 0 0 0 0 0 0 0 0 0 0
17 19 20 20 18 17 19 20 18 14 12 10 6 2 0 0 1 2 2 2 2 1 0 0 0 0 0 0 0 0 0 0 0 0 0 0 0 0 0 0 0 0 0
16 19 21 20 18 15 15 15 14 12 11 10 6 2 0 0 0 1 2 1 1 0 0 0 0 0 0 0 0 0 0 0 0 0 0 0 0 0 0 0 0 0 1
17 18 20 21 19 16 14 12 10 9 9 8 6 4 2 1 1 2 2 1 0 0 0 0 0 0 0 0 0 0 0 0 0 0 0 0 0 0 0 0 0 0 1
16 17 19 20 20 16 12 10 8 7 6 6 5 4 3 2 1 1 1 1 1 1 1 1 0 0 0 0 0 0 0 0 0 0 0 0 0 0 0 0 0 0 1
14 15 16 18 18 16 11 8 7 6 5 4 4 3 3 3 3 3 2 2 3 3 2 2 1 1 0 0 0 0 0 0 0 0 0 0 0 0 0 0 0 0 0
12 12 14 16 16 14 11 7 4 4 5 5 4 4 3 3 4 6 5 5 5 4 3 3 3 2 2 2 1 1 1 0 0 0 0 0 0 0 0 0 0 0 0
10 10 14 16 13 10 8 5 3 3 6 7 6 5 4 4 5 6 7 6 6 4 3 3 3 3 3 3 3 2 1 0 0 0 0 0 0 0 0 0 0 0 0
11 11 13 13 9 6 4 3 3 4 7 9 8 6 5 5 6 7 6 5 5 4 3 3 3 3 3 3 3 2 1 0 0 0 0 0 0 0 0 0 0 0 0
11 11 11 9 6 4 3 3 3 4 6 8 8 5 4 6 8 8 7 5 4 3 3 3 3 3 3 3 2 1 0 0 0 0 0 0 0 0 0 0 0 0 0
9 9 8 6 4 3 3 3 3 3 5 7 7 5 5 6 7 8 8 6 4 3 3 3 3 3 3 2 1 0 0 0 0 0 0 0 0 0 0 0 0 0 0
6 6 5 4 3 3 3 3 3 4 5 6 7 7 7 7 7 7 8 6 4 2 2 3 3 3 2 1 0 0 0 0 0 0 0 0 0 0 0 0 0 0 0
5 5 5 5 4 3 3 4 4 5 6 6 7 8 8 7 6 7 7 6 4 2 1 2 3 2 1 0 0 0 0 0 0 0 0 0 0 0 0 0 0 0 0
4 4 4 5 5 4 4 4 5 6 7 7 6 7 7 7 6 6 6 4 3 2 2 2 2 1 0 0 0 0 0 0 0 0 0 0 0 0 0 0 0 0 0
2 2 2 4 5 5 4 5 7 8 8 7 6 6 6 6 6 6 5 2 1 1 1 2 1 0 0 0 0 0 0 0 0 0 0 0 0 0 0 0 0 0 0
1 0 1 3 4 4 4 6 8 9 8 7 6 6 6 6 6 6 3 1 0 0 0 0 0 0 0 0 0 0 0 0 0 0 0 0 0 0 0 0 0 0 0
1 1 2 3 3 3 4 6 7 7 7 7 6 6 7 7 7 6 2 0 0 0 0 0 0 0 0 0 0 0 0 0 0 0 0 0 0 0 0 0 0 0 0
2 2 3 3 3 3 3 4 5 7 8 7 6 7 8 9 9 7 3 1 0 0 0 0 0 0 0 0 0 0 0 0 0 0 0 0 0 0 0 0 0 0 0
2 2 2 2 3 3 3 3 4 7 8 8 7 8 10 11 11 9 5 2 1 1 0 0 0 0 0 0 0 0 0 0 0 0 0 0 0 0 0 0 0 0 0
1 1 1 2 2 2 3 3 4 6 7 7 8 9 10 12 11 9 6 4 3 2 1 0 0 0 0 0 0 0 0 0 0 0 0 0 0 0 0 0 0 0 0
2 1 1 2 2 2 3 3 3 4 5 5 7 8 9 10 9 7 6 5 4 3 1 0 0 0 0 0 0 0 0 0 0 0 0 0 0 0 0 0 0 0 0
3 3 2 2 1 1 2 2 3 3 4 4 4 5 6 6 5 4 4 5 5 4 2 1 0 0 0 0 0 0 0 0 0 0 0 0 0 0 0 0 0 0 0
3 3 3 3 1 0 1 2 3 3 3 2 2 3 4 4 3 3 3 4 6 5 4 2 1 1 1 0 0 0 0 0 0 0 0 0 0 0 0 0 0 0 0
3 3 3 3 2 1 1 1 2 2 1 1 0 1 3 3 3 3 3 4 5 5 4 3 2 2 2 1 0 0 0 0 0 0 0 0 0 0 0 0 0 0 0
2 2 2 2 2 2 2 1 1 1 0 0 0 1 2 3 3 3 3 3 4 4 4 3 3 3 3 2 1 0 0 0 0 0 0 0 0 0 0 0 0 0 0
1 1 1 1 2 3 3 2 1 0 0 0 0 1 2 3 3 3 3 3 3 3 3 3 3 3 3 2 1 0 0 0 0 0 0 0 0 0 0 0 0 0 0
Wind_Speed
10 9 10 10 9 8 9 9 8 7 6 4 4 4 3 3 2 2 3 4 3 3 3 2 2 3 3 3 3 2 2 1 1 2 2 2 2 1 1 1 2 2 2
8 9 10 9 9 9 8 8 8 8 7 5 4 3 3 3 3 2 2 3 3 3 3 3 3 3 3 2 2 2 2 1 2 2 2 2 3 2 1 1 2 2 1
12 12 11 10 10 9 9 8 7 7 6 6 4 3 2 2 1 1 2 2 3 3 3 3 3 3 3 3 3 3 4 2 1 2 3 3 3 2 2 1 1 2 2
10 11 11 11 11 10 9 8 7 6 6 6 5 6 4 3 3 3 2 2 3 3 3 3 3 3 3 3 3 4 3 4 2 1 1 2 4 2 1 2 2 2 2
11 11 11 11 11 10 9 8 7 6 6 6 6 6 4 3 2 2 2 2 2 2 3 3 3 3 3 3 3 3 3 3 3 3 2 1 1 2 2 2 2 2 2
10 9 9 9 8 8 7 7 7 6 6 6 6 6 5 4 3 2 2 2 1 2 3 3 3 3 3 3 4 4 4 4 4 3 3 3 2 3 3 2 2 2 3
10 10 10 9 8 8 8 7 8 7 7 7 6 6 6 6 5 4 3 3 2 2 3 3 3 3 3 3 3 3 4 4 4 4 3 3 3 3 3 3 2 2 2
9 10 11 11 10 9 8 8 8 7 7 7 6 5 5 4 3 4 4 4 3 3 4 3 4 4 4 4 3 2 3 3 3 4 4 3 3 3 3 4 3 1 2
9 10 9 9 9 9 8 8 8 7 7 7 6 5 5 5 4 4 3 3 2 3 3 4 3 3 4 4 3 3 3 3 3 3 3 3 2 2 3 3 4 4 2
6 8 8 9 8 8 7 7 7 8 7 6 6 5 5 5 5 4 3 3 3 2 3 3 3 3 3 3 3 3 3 3 3 3 3 3 2 2 2 3 3 3 4
6 7 7 8 8 7 6 6 6 6 6 6 5 5 4 3 4 4 4 4 3 3 3 4 4 4 4 4 3 3 4 4 3 3 4 4 3 2 2 2 2 3 3
5 6 7 7 7 7 6 6 6 6 6 6 5 5 4 4 4 4 4 4 3 3 4 3 3 3 4 4 4 4 4 4 4 4 3 4 3 3 3 2 3 3 3
6 5 5 6 7 6 6 5 6 6 5 6 6 5 4 4 4 4 4 4 4 3 3 3 3 3 3 3 4 4 4 4 4 4 4 4 3 3 2 3 3 2 2
6 6 5 6 6 6 6 6 5 5 5 5 6 5 5 5 5 4 3 3 3 4 3 3 3 4 3 3 3 3 3 3 3 3 4 4 4 4 4 3 3 3 2
5 6 6 5 5 6 5 5 5 5 5 5 5 5 5 4 4 3 3 3 3 3 3 3 3 3 3 3 3 3 3 3 2 2 3 3 4 5 4 3 4 3 2
5 5 5 4 4 5 5 5 5 5 5 5 5 5 4 4 4 4 4 3 3 2 3 3 3 3 3 4 5 4 3 3 3 3 2 3 3 4 5 5 5 5 5
4 4 4 4 4 3 4 5 5 4 4 4 4 4 4 4 4 4 4 3 3 2 2 3 3 3 3 5 5 6 3 3 3 3 2 2 2 3 2 3 3 3 5
4 3 3 3 3 4 3 3 4 4 4 3 3 4 4 4 4 4 4 4 3 3 3 3 3 3 3 4 5 5 3 3 3 3 3 3 2 2 2 2 1 1 2
3 3 3 3 3 3 4 4 3 3 3 3 3 3 4 4 4 4 4 4 3 3 3 3 3 3 4 5 5 5 3 2 2 3 3 3 3 3 3 3 2 1 3
2 2 2 2 3 3 3 3 3 3 2 3 3 3 3 4 5 5 5 4 3 4 3 3 3 4 4 5 6 6 3 2 2 2 2 3 3 4 4 3 3 3 3
3 3 3 2 2 2 4 3 3 2 2 2 2 2 3 4 4 4 4 3 3 3 3 3 3 3 4 5 6 7 4 4 3 2 2 2 3 3 4 4 4 5 4
3 3 3 2 1 2 4 3 3 3 2 1 1 1 2 2 2 3 3 3 3 3 3 2 2 2 3 3 5 7 7 5 4 3 3 3 3 3 3 3 3 4 2
3 3 3 2 1 1 3 3 3 2 2 1 1 1 1 1 2 2 3 3 3 3 3 3 3 3 2 2 4 6 7 6 4 3 4 4 4 3 3 3 4 2 1
3 3 3 2 0 1 2 3 2 2 2 1 1 1 1 1 1 1 2 3 3 3 3 3 4 3 2 2 2 3 3 4 3 2 2 3 3 2 2 2 2 2 3
2 3 3 2 1 1 1 2 2 3 2 1 1 1 1 1 1 2 2 3 4 5 5 4 4 4 4 5 5 5 4 4 4 2 0 0 0 1 1 1 2 2 2
2 2 2 2 1 0 0 1 1 3 2 1 1 1 1 1 1 1 2 3 3 4 6 5 5 4 5 4 4 6 6 5 5 3 2 2 2 3 3 3 2 2 3
Wind_Direction
178 164 162 159 155 157 156 158 155 156 147 148 153 154 162 170 171 178 170 168 166 159 156 161 157 156 156 169 162 144 136 143 112 76 10 343 334 285 220 184 177 193 193
160 164 163 157 158 161 160 159 160 160 161 162 164 165 161 170 177 184 177 175 170 168 169 175 178 174 167 166 165 153 139 163 137 128 96 1 344 333 284 210 188 198 192
170 169 167 163 159 161 162 162 168 165 167 156 138 122 103 89 107 167 189 195 183 179 177 180 179 178 172 180 184 170 160 176 196 160 151 156 217 294 318 291 231 207 206
170 171 168 165 166 169 162 160 167 167 166 155 150 152 158 169 188 185 192 200 191 186 183 184 178 181 181 185 193 181 171 165 184 209 188 175 162 157 284 317 301 259 234
170 170 167 170 169 167 165 166 165 167 163 157 157 157 162 175 167 162 171 193 207 197 188 187 182 185 188 194 193 181 177 175 181 185 177 156 129 143 156 252 294 301 271
164 164 160 159 163 164 163 160 158 165 162 157 157 163 165 162 157 166 178 197 214 217 208 195 190 193 191 195 196 190 185 188 188 187 177 169 170 181 172 200 242 261 272
162 159 158 159 161 161 163 163 163 166 168 164 165 170 171 170 175 182 188 192 206 224 223 207 199 198 200 200 193 188 193 189 189 192 195 190 192 173 165 171 209 251 278
164 165 167 165 164 164 162 165 168 171 171 171 174 173 171 171 179 187 188 194 207 216 216 211 202 200 197 200 191 190 199 190 193 205 199 199 207 185 173 171 165 223 292
161 164 163 163 163 165 169 172 170 170 175 178 176 176 178 177 181 187 188 196 209 210 208 207 202 204 201 199 189 193 202 190 197 206 206 206 210 200 193 182 172 172 215
164 164 163 163 164 168 167 167 166 172 175 175 177 180 186 186 182 177 184 196 207 207 196 205 205 203 202 199 194 194 199 194 208 205 203 214 213 208 200 193 190 183 185
166 162 165 163 161 159 159 164 167 168 173 175 176 173 180 182 176 177 190 196 199 201 198 202 203 202 200 195 190 199 197 197 211 218 209 221 213 204 206 199 194 195 180
148 155 159 157 157 161 163 165 169 172 179 176 172 174 178 181 184 190 197 198 201 205 203 198 198 204 204 196 194 206 206 201 208 217 214 224 217 209 210 197 204 210 201
123 139 151 154 159 163 167 171 171 175 174 169 171 175 182 190 197 202 201 198 197 199 194 190 200 204 203 203 206 205 206 208 212 212 217 227 211 216 208 198 201 212 213
132 142 152 162 164 165 169 174 175 172 168 171 174 182 194 198 202 203 198 197 194 189 187 191 200 203 200 205 209 202 203 208 215 214 215 219 209 209 205 202 202 194 193
142 151 159 163 167 167 169 168 171 172 169 168 179 193 195 193 192 196 198 194 191 196 193 192 202 205 199 206 199 198 195 199 214 221 222 224 220 210 202 200 197 187 187
157 148 148 151 162 170 174 170 172 180 169 175 189 192 183 186 194 197 194 195 203 209 200 202 203 205 213 208 196 190 195 196 200 215 236 238 226 226 220 219 207 191 189
154 150 153 163 166 166 172 178 182 176 171 185 191 186 181 185 196 194 188 196 206 204 214 220 210 218 226 205 201 203 194 201 207 207 216 240 237 212 218 232 231 228 224
146 151 151 157 161 158 156 167 163 157 164 174 184 184 179 182 188 187 196 204 201 204 214 220 216 215 219 200 199 195 187 192 203 205 210 214 231 220 198 191 208 256 253
147 156 167 161 148 151 155 141 143 146 155 171 195 192 187 184 183 189 203 207 200 208 214 215 214 214 223 210 202 188 180 193 215 222 217 206 215 234 204 176 199 255 284
110 118 113 127 138 152 138 141 143 141 174 203 207 196 190 192 195 199 203 203 202 212 218 225 221 217 222 214 203 186 178 193 219 235 235 221 222 231 207 184 188 218 254
118 114 102 99 137 140 129 127 130 166 209 221 209 203 203 202 204 202 205 204 207 210 218 228 234 222 219 212 203 190 183 194 200 212 230 243 239 240 224 201 199 222 229
117 114 103 78 97 121 127 144 173 198 186 152 157 196 207 214 212 206 215 209 197 203 218 224 242 236 225 210 203 195 201 197 185 209 220 226 235 241 234 215 225 234 227
136 127 123 100 71 134 141 162 206 188 153 136 176 215 223 226 218 214 219 212 201 205 217 212 222 237 235 224 210 200 205 208 198 212 216 229 235 233 229 225 231 230 182
149 134 124 120 355 233 175 177 193 167 138 140 227 233 228 264 276 254 221 211 209 208 213 211 216 229 233 228 222 212 210 209 209 225 237 243 243 228 227 232 231 214 204
145 135 141 146 204 227 217 191 173 155 141 165 250 248 236 239 265 262 239 220 218 206 203 214 209 207 228 232 210 191 196 196 199 176 142 46 260 264 260 254 247 230 217
140 137 143 148 145 94 297 257 205 162 155 171 250 248 246 252 252 250 285 273 246 230 209 205 200 211 225 227 203 201 202 200 179 149 180 219 225 225 228 229 241 232 227